This is the latest recevied weather packets stored in our database for station/object G4KVI. If no packets are shown the sender has not sent any weather packets the latest 10 day(s).
| Time | Temp. | Humidity | Pressure | Rain* | Wind** | Luminosity | Snow |
|---|---|---|---|---|---|---|---|
| 1778082003 | 14.44° C | 45% | 1015.2 hPa | 0 mm | - | 531 W/m² | - |
| 1778081703 | 14.44° C | 44% | 1015.4 hPa | 0 mm | - | 533 W/m² | - |
| 1778081403 | 14.44° C | 44% | 1015.4 hPa | 0 mm | - | 284 W/m² | - |
| 1778081103 | 14.44° C | 44% | 1015.3 hPa | 0 mm | - | 583 W/m² | - |
| 1778080803 | 14.44° C | 44% | 1015.5 hPa | 0 mm | - | 251 W/m² | - |
| 1778080504 | 14.44° C | 42% | 1015.4 hPa | 0 mm | - | 282 W/m² | - |
| 1778080203 | 14.44° C | 44% | 1015.4 hPa | 0 mm | - | 351 W/m² | - |
| 1778079904 | 13.89° C | 44% | 1015.6 hPa | 0 mm | - | 293 W/m² | - |
| 1778079603 | 14.44° C | 44% | 1015.5 hPa | 0 mm | - | 298 W/m² | - |
| 1778079304 | 14.44° C | 44% | 1015.7 hPa | 0 mm | - | 205 W/m² | - |
| 1778079003 | 14.44° C | 43% | 1015.5 hPa | 0 mm | - | 191 W/m² | - |
| 1778078704 | 14.44° C | 43% | 1015.6 hPa | 0 mm | - | 221 W/m² | - |
| 1778078403 | 15° C | 43% | 1015.6 hPa | 0 mm | - | 704 W/m² | - |
| 1778078103 | 14.44° C | 42% | 1015.7 hPa | 0 mm | - | 708 W/m² | - |
| 1778077803 | 15° C | 42% | 1015.6 hPa | 0 mm | - | 738 W/m² | - |
| 1778077503 | 14.44° C | 42% | 1015.7 hPa | 0 mm | - | 666 W/m² | - |
| 1778077204 | 14.44° C | 43% | 1015.8 hPa | 0 mm | - | 384 W/m² | - |
| 1778076903 | 13.89° C | 43% | 1015.9 hPa | 0 mm | - | 390 W/m² | - |
| 1778076603 | 13.89° C | 44% | 1016 hPa | 0 mm | - | 684 W/m² | - |
| 1778076304 | 13.33° C | 46% | 1015.7 hPa | 0 mm | - | 270 W/m² | - |
| 1778076003 | 13.33° C | 45% | 1015.9 hPa | 0 mm | - | 233 W/m² | - |
| 1778075703 | 13.33° C | 45% | 1015.6 hPa | 0 mm | - | 223 W/m² | - |
| 1778075403 | 13.89° C | 43% | 1016 hPa | 0 mm | - | 214 W/m² | - |
| 1778075103 | 13.89° C | 44% | 1016.1 hPa | 0 mm | - | 282 W/m² | - |
| 1778074803 | 14.44° C | 43% | 1015.9 hPa | 0 mm | - | 434 W/m² | - |
* Rain latest hour (hover to see other rain measurements)
** Current wind speed in m/s (hover to see current wind gust speed)